When you browse on this site, cookies collect data to enhance your experience and personalize the content and advertising you see.
Visit our Privacy Policy to learn more. By continuing to use the site, you agree to this use of cookies and data.
  • In Austria
  • List of Countries
  • For 7 days
  • Water Temperature
  • Satellite Maps
  • Weather Map
  • News
  • Weather Widgets
  • user-avatar
    Login

    Hourly Weather Staunton

    Today, 21 February, Thursday

    Time Temperature Precipitation Wind Pressure Humidity
    00:00 +2°C° 0.1 mm 2 mps 720 mmHg 99%
    01:00 +2°C° 0.1 mm 3 mps 720 mmHg 99%
    02:00 +2°C° 0 mm 3 mps 720 mmHg 99%
    03:00 +3°C° 0 mm 3 mps 720 mmHg 99%
    04:00 +4°C° 0 mm 2 mps 720 mmHg 98%
    05:00 +4°C° 0 mm 2 mps 720 mmHg 98%
    06:00 +4°C° 0 mm 2 mps 721 mmHg 98%
    07:00 +4°C° 0 mm 2 mps 721 mmHg 98%
    08:00 +6°C° 0 mm 2 mps 722 mmHg 97%
    09:00 +7°C° 0 mm 2 mps 722 mmHg 97%
    10:00 +8°C° 0 mm 2 mps 723 mmHg 96%
    11:00 +10°C° 0 mm 3 mps 723 mmHg 91%
    12:00 +11°C° 0 mm 3 mps 724 mmHg 85%
    13:00 +12°C° 0 mm 3 mps 724 mmHg 80%
    14:00 +12°C° 0 mm 3 mps 724 mmHg 78%
    15:00 +13°C° 0 mm 2 mps 724 mmHg 75%
    16:00 +13°C° 0 mm 2 mps 724 mmHg 73%
    17:00 +11°C° 0 mm 1 mps 724 mmHg 75%
    18:00 +9°C° 0 mm 1 mps 725 mmHg 77%
    19:00 +7°C° 0 mm 1 mps 725 mmHg 78%
    20:00 +7°C° 0 mm 1 mps 726 mmHg 79%
    21:00 +6°C° 0 mm 1 mps 726 mmHg 80%
    22:00 +6°C° 0 mm 1 mps 726 mmHg 81%
    23:00 +6°C° 0.1 mm 1 mps 727 mmHg 81%

    Tomorrow, 22 February, Friday

    Time Temperature Precipitation Wind Pressure Humidity
    00:00 +6°C° 0.1 mm 1 mps 727 mmHg 81%
    01:00 +5°C° 0.1 mm 1 mps 727 mmHg 81%
    02:00 +5°C° 0.4 mm 1 mps 727 mmHg 84%
    03:00 +4°C° 0.4 mm 0 mps 728 mmHg 86%
    04:00 +4°C° 0.4 mm 0 mps 728 mmHg 88%
    05:00 +3°C° 0.4 mm 0 mps 728 mmHg 88%
    06:00 +3°C° 0.4 mm 0 mps 729 mmHg 89%
    07:00 +4°C° 0.4 mm 1 mps 729 mmHg 90%
    08:00 +4°C° 0 mm 0 mps 730 mmHg 86%
    09:00 +5°C° 0 mm 0 mps 730 mmHg 83%
    10:00 +7°C° 0 mm 0 mps 731 mmHg 79%
    11:00 +7°C° 0 mm 0 mps 731 mmHg 78%
    12:00 +9°C° 0 mm 1 mps 731 mmHg 77%
    13:00 +10°C° 0 mm 1 mps 731 mmHg 76%
    14:00 +9°C° 0 mm 1 mps 731 mmHg 80%
    15:00 +9°C° 0 mm 1 mps 730 mmHg 84%
    16:00 +7°C° 0 mm 2 mps 730 mmHg 88%
    17:00 +7°C° 0.1 mm 1 mps 730 mmHg 91%
    18:00 +6°C° 0.1 mm 1 mps 731 mmHg 94%
    19:00 +6°C° 0.1 mm 1 mps 731 mmHg 98%
    20:00 +6°C° 0.1 mm 1 mps 731 mmHg 98%
    21:00 +5°C° 0.1 mm 1 mps 731 mmHg 98%
    22:00 +5°C° 0.1 mm 1 mps 731 mmHg 98%
    23:00 +5°C° 0.2 mm 1 mps 731 mmHg 97%

    Day after tomorrow, 23 February, Saturday

    Time Temperature Precipitation Wind Pressure Humidity
    00:00 +5°C° 0.2 mm 1 mps 731 mmHg 97%
    01:00 +5°C° 0.2 mm 1 mps 731 mmHg 97%
    02:00 +5°C° 0.4 mm 1 mps 730 mmHg 97%
    03:00 +5°C° 0.4 mm 1 mps 730 mmHg 97%
    04:00 +4°C° 0.4 mm 1 mps 729 mmHg 97%
    05:00 +4°C° 0.1 mm 1 mps 729 mmHg 97%
    06:00 +4°C° 0.1 mm 1 mps 729 mmHg 97%
    07:00 +4°C° 0.1 mm 1 mps 729 mmHg 97%
    08:00 +4°C° 0.3 mm 1 mps 729 mmHg 95%
    09:00 +5°C° 0.3 mm 1 mps 729 mmHg 94%
    10:00 +4°C° 0.3 mm 2 mps 729 mmHg 93%
    11:00 +4°C° 0.3 mm 2 mps 729 mmHg 92%
    12:00 +4°C° 0.3 mm 2 mps 728 mmHg 91%
    13:00 +5°C° 0.3 mm 2 mps 728 mmHg 90%
    14:00 +5°C° 0.4 mm 2 mps 727 mmHg 92%
    15:00 +4°C° 0.4 mm 2 mps 726 mmHg 93%
    16:00 +4°C° 0.4 mm 2 mps 725 mmHg 94%
    17:00 +4°C° 0.6 mm 2 mps 725 mmHg 95%
    18:00 +4°C° 0.6 mm 2 mps 724 mmHg 96%
    19:00 +3°C° 0.6 mm 2 mps 724 mmHg 97%
    20:00 +4°C° 0.9 mm 2 mps 723 mmHg 97%
    21:00 +5°C° 0.9 mm 1 mps 723 mmHg 97%
    22:00 +5°C° 0.9 mm 1 mps 722 mmHg 97%
    23:00 +5°C° 1.9 mm 1 mps 721 mmHg 97%

    24 February, Sunday

    Time Temperature Precipitation Wind Pressure Humidity
    00:00 +5°C° 1.9 mm 1 mps 720 mmHg 97%
    01:00 +6°C° 1.9 mm 1 mps 719 mmHg 97%
    02:00 +6°C° 1.7 mm 1 mps 718 mmHg 97%
    03:00 +6°C° 1.7 mm 1 mps 717 mmHg 97%
    04:00 +6°C° 1.7 mm 2 mps 715 mmHg 97%
    05:00 +7°C° 0.1 mm 2 mps 714 mmHg 97%
    06:00 +8°C° 0.1 mm 3 mps 713 mmHg 97%
    07:00 +9°C° 0.1 mm 3 mps 712 mmHg 97%
    08:00 +10°C° 0.1 mm 5 mps 712 mmHg 88%
    09:00 +12°C° 0.1 mm 7 mps 712 mmHg 80%
    10:00 +16°C° 0.1 mm 9 mps 712 mmHg 72%
    11:00 +13°C° 0 mm 10 mps 713 mmHg 68%
    12:00 +12°C° 0 mm 11 mps 713 mmHg 65%
    13:00 +11°C° 0 mm 11 mps 713 mmHg 61%
    14:00 +9°C° 0 mm 11 mps 714 mmHg 61%
    15:00 +9°C° 0 mm 10 mps 714 mmHg 60%
    16:00 +8°C° 0 mm 10 mps 715 mmHg 60%
    17:00 +7°C° 0 mm 9 mps 715 mmHg 60%
    18:00 +5°C° 0 mm 8 mps 716 mmHg 61%
    19:00 +4°C° 0 mm 7 mps 717 mmHg 62%
    20:00 +4°C° 0 mm 8 mps 717 mmHg 58%
    21:00 +2°C° 0 mm 8 mps 717 mmHg 54%
    22:00 +2°C° 0 mm 9 mps 718 mmHg 50%
    23:00 +1°C° 0 mm 9 mps 718 mmHg 49%

    25 February, Monday

    Time Temperature Precipitation Wind Pressure Humidity
    00:00 +1°C° 0 mm 9 mps 719 mmHg 48%
    01:00 0°C° 0 mm 9 mps 719 mmHg 47%
    02:00 -1°C° 0 mm 9 mps 720 mmHg 46%
    03:00 -1°C° 0 mm 8 mps 720 mmHg 45%
    04:00 -2°C° 0 mm 8 mps 721 mmHg 44%
    05:00 -2°C° 0 mm 7 mps 722 mmHg 44%
    06:00 -2°C° 0 mm 6 mps 723 mmHg 43%
    07:00 -2°C° 0 mm 5 mps 724 mmHg 42%
    08:00 -1°C° 0 mm 6 mps 725 mmHg 39%
    09:00 +2°C° 0 mm 6 mps 726 mmHg 35%
    10:00 +3°C° 0 mm 7 mps 727 mmHg 31%
    11:00 +4°C° 0 mm 7 mps 727 mmHg 30%
    12:00 +5°C° 0 mm 7 mps 727 mmHg 29%
    13:00 +6°C° 0 mm 7 mps 728 mmHg 28%
    14:00 +7°C° 0 mm 6 mps 728 mmHg 30%
    15:00 +7°C° 0 mm 6 mps 728 mmHg 32%
    16:00 +7°C° 0 mm 6 mps 728 mmHg 34%
    17:00 +5°C° 0 mm 4 mps 728 mmHg 40%
    18:00 +3°C° 0 mm 3 mps 729 mmHg 47%
    19:00 +1°C° 0 mm 2 mps 729 mmHg 54%
    20:00 +1°C° 0 mm 2 mps 730 mmHg 56%
    21:00 -1°C° 0 mm 2 mps 730 mmHg 58%
    22:00 +1°C° 0 mm 1 mps 730 mmHg 61%
    23:00 +1°C° 0 mm 1 mps 731 mmHg 61%

    26 February, Tuesday

    Time Temperature Precipitation Wind Pressure Humidity
    00:00 0°C° 0 mm 1 mps 731 mmHg 62%
    01:00 0°C° 0 mm 1 mps 731 mmHg 63%
    02:00 0°C° 0 mm 1 mps 731 mmHg 62%
    03:00 0°C° 0 mm 1 mps 731 mmHg 62%
    04:00 -1°C° 0 mm 0 mps 731 mmHg 62%
    05:00 -1°C° 0 mm 0 mps 732 mmHg 61%
    06:00 -1°C° 0 mm 0 mps 732 mmHg 61%
    07:00 -1°C° 0 mm 0 mps 732 mmHg 61%
    08:00 +2°C° 0 mm 1 mps 733 mmHg 56%
    09:00 +3°C° 0 mm 2 mps 733 mmHg 51%
    10:00 +5°C° 0 mm 2 mps 733 mmHg 46%
    11:00 +7°C° 0 mm 3 mps 733 mmHg 45%
    12:00 +8°C° 0 mm 3 mps 732 mmHg 45%
    13:00 +8°C° 0 mm 4 mps 732 mmHg 44%
    14:00 +8°C° 0 mm 4 mps 731 mmHg 46%
    15:00 +8°C° 0 mm 4 mps 731 mmHg 48%
    16:00 +8°C° 0 mm 4 mps 730 mmHg 50%
    17:00 +6°C° 0 mm 4 mps 730 mmHg 60%
    18:00 +4°C° 0 mm 3 mps 730 mmHg 70%
    19:00 +3°C° 0 mm 2 mps 730 mmHg 80%
    20:00 +3°C° 0 mm 2 mps 730 mmHg 83%
    21:00 +2°C° 0 mm 2 mps 730 mmHg 85%
    22:00 +2°C° 0 mm 2 mps 730 mmHg 88%
    23:00 +1°C° 0 mm 2 mps 729 mmHg 90%
    Show more